#timestamp,LO_Frequency,Hit 
1505012415.2,286047010.1,N
1505012435.0,286047012.1,N
1505012436.0,286047012.1,P
1505012455.8,286046998.5,P
1505012475.6,286047000.4,N
1505012495.4,286047000.4,N
1505012515.3,286047003.5,N
1505012535.1,286047002.1,N
1505012555.8,286046997.8,N
1505012575.7,286046994.3,N
1505012595.5,286046990.9,N
1505012615.3,286046988.1,N
1505012635.2,286046988.2,N
1505012655.9,286046985.0,N
1505012675.7,286046980.9,N
1505012695.6,286046980.9,N
1505012715.4,286046983.0,N
1505012735.2,286046983.6,N
1505012755.1,286046984.9,N
1505012756.0,286046984.9,N
1505012775.8,286046979.9,N
1505012795.6,286046979.2,N
1505012815.4,286046980.7,N
1505012835.3,286046983.4,N
1505012855.1,286046983.2,N
1505012875.8,286046977.6,N
1505012895.7,286046978.1,N
1505012915.5,286046978.6,N
1505012935.3,286046974.6,N
1505012955.2,286046975.2,N
1505012975.9,286046975.2,N
1505012995.7,286046976.5,N
1505013015.6,286046977.0,N
1505013035.4,286046974.9,N
1505013055.2,286046972.6,P
1505013075.1,286046989.0,N
1505013076.0,286046989.0,N
1505013095.8,286046987.8,N
1505013115.6,286046984.3,N
1505013135.5,286046984.0,N
1505013155.3,286046986.4,N
1505013175.1,286046987.5,N
1505013195.9,286046990.0,N
1505013215.7,286046989.6,N
1505013235.5,286046987.9,N
1505013255.4,286046987.4,N
1505013275.2,286046991.6,N
1505013295.0,286046991.4,N
1505013295.9,286046991.4,N
1505013315.8,286046986.7,P
1505013335.6,286046996.9,P
1505013355.4,286046997.0,N
1505013375.3,286046999.1,N
1505013395.1,286046996.6,N
1505013396.0,286046996.6,N
1505013415.8,286046996.6,N
1505013435.6,286046997.3,N
1505013455.5,286046996.7,N
1505013475.3,286047002.5,N
1505013495.1,286047005.7,N
1505013515.9,286047006.3,N
1505013535.7,286047013.6,N
1505013555.5,286047017.1,N
1505013575.4,286047017.5,N
1505013595.2,286047017.7,N
1505013615.0,286047017.6,N
1505013615.9,286047017.6,N
1505013635.8,286047021.4,N
1505013655.6,286047024.5,N
1505013675.4,286047022.6,N
1505013695.3,286047024.9,N
1505013715.1,286047029.6,N
1505013716.0,286047029.6,N
1505013735.8,286047026.5,N
1505013755.7,286047027.9,N
1505013775.5,286047026.0,N
1505013795.3,286047028.1,N
1505013815.1,286047027.7,N
1505013835.9,286047027.6,N
1505013855.7,286047027.8,N
1505013875.5,286047031.0,N
1505013895.4,286047029.8,N
1505013915.2,286047029.5,N
1505013935.0,286047029.5,N
1505013935.9,286047029.5,N
1505013955.8,286047028.6,N
1505013975.6,286047031.0,P
1505013995.4,286047008.7,N
1505014015.3,286047006.2,N
1505014035.1,286047007.2,N
1505014055.8,286047007.2,N
1505014075.7,286047005.7,N
1505014095.5,286047003.8,N
1505014115.3,286047008.8,N
1505014135.2,286047008.8,N
1505014155.9,286047009.2,N
1505014175.7,286047008.2,N
1505014195.6,286047010.6,N
1505014215.4,286047011.2,N
1505014235.2,286047008.0,N
1505014255.0,286047013.5,N
1505014255.9,286047013.5,N
1505014275.8,286047015.2,N
1505014295.6,286047013.9,N
1505014315.4,286047015.1,N
1505014335.3,286047014.1,N
1505014355.1,286047012.5,N
1505014375.8,286047016.7,N
1505014395.7,286047015.0,N
1505014415.5,286047014.0,N
1505014435.3,286047012.7,N
1505014455.2,286047008.0,N
1505014475.9,286047014.3,N
1505014495.7,286047011.2,N
1505014515.6,286047005.4,N
1505014535.4,286047003.6,N
1505014555.2,286047003.7,N
1505014575.0,286047001.8,N
1505014576.0,286047001.8,N
1505014595.8,286047002.4,N
1505014615.6,286047000.5,N
1505014635.4,286046999.0,N
1505014655.3,286046999.1,N
1505014675.1,286046995.2,N
1505014695.8,286046994.5,N
1505014715.7,286046994.0,N
1505014735.5,286046993.4,N
1505014755.3,286046992.7,N
1505014775.2,286046993.1,N
1505014795.0,286046990.2,N
1505014795.9,286046990.2,N
1505014815.7,286046993.1,N
1505014835.6,286046991.1,N
1505014855.4,286046989.1,N
1505014875.2,286046989.5,N
1505014895.1,286046989.6,N
1505014896.0,286046989.6,N
1505014915.8,286046987.1,N
1505014935.6,286046988.1,N
1505014955.5,286046989.8,N
1505014975.3,286046987.2,N
1505014995.1,286046989.9,N
1505015015.9,286046989.9,N
1505015035.7,286046988.8,N
1505015055.5,286046989.2,N
1505015075.4,286046987.6,N
1505015095.2,286046986.4,N
1505015115.0,286046984.9,P
1505015115.9,286046984.9,P
1505015135.8,286046992.4,N
1505015155.6,286046993.1,N
1505015175.4,286046991.4,N
1505015195.3,286046989.5,N
1505015215.1,286046987.6,P
1505015216.0,286046987.6,P
1505015235.8,286046997.5,N
1505015255.7,286046999.6,N
1505015275.5,286046998.1,N
1505015295.3,286046997.2,N
1505015315.2,286046998.9,N
1505015335.9,286046997.5,N
1505015355.7,286046994.8,N
1505015375.5,286046992.8,N
1505015395.4,286046994.5,N
1505015415.2,286046995.3,N
1505015435.0,286046997.5,N
1505015435.9,286046997.5,N
1505015455.8,286046998.5,N
1505015475.6,286047002.1,N
1505015495.4,286047003.4,N
1505015515.3,286047009.4,N
1505015535.1,286047017.4,P
1505015555.8,286047020.6,N
1505015575.7,286047023.8,N
1505015595.5,286047028.1,N
1505015615.3,286047027.6,N
1505015635.2,286047029.5,N
1505015655.9,286047028.9,N
1505015675.7,286047031.3,P
1505015695.6,286047010.6,N
1505015715.4,286047006.2,N
1505015735.2,286047010.1,N
1505015755.1,286047008.3,N
1505015756.0,286047008.3,N
1505015775.8,286047009.9,N
1505015795.6,286047010.5,N
1505015815.5,286047011.3,N
1505015835.3,286047011.7,N
1505015855.1,286047012.2,N
1505015875.9,286047012.9,N
1505015895.7,286047015.4,N
1505015915.5,286047015.6,N
1505015935.3,286047013.0,N
1505015955.2,286047015.2,N
1505015975.0,286047013.4,N
1505015975.9,286047013.4,N
1505015995.7,286047013.2,N
